When you browse on this site, cookies collect data to enhance your experience and personalize the content and advertising you see.
Visit our Privacy Policy to learn more. By continuing to use the site, you agree to this use of cookies and data.
  • En España
  • Lista de países
  • Para 7 días
  • Temperatura del agua
  • Mapa Satelital
  • El tiempo en el mapa
  • Informadores
  • user-avatar
    Iniciar sesión

    Tiempo cada hora Namibe

    Hoy, 12 Diciembre, Miércoles

    Tiempo Temperatura Precipitaciones Viento Presión Humedad
    00:00 +25°C° 0 mm 3 mps 760 mmHg 73%
    01:00 +25°C° 0 mm 3 mps 760 mmHg 73%
    02:00 +25°C° 0 mm 3 mps 760 mmHg 73%
    03:00 +25°C° 0 mm 3 mps 759 mmHg 74%
    04:00 +25°C° 0 mm 3 mps 759 mmHg 74%
    05:00 +25°C° 0 mm 3 mps 759 mmHg 73%
    06:00 +25°C° 0 mm 2 mps 759 mmHg 72%
    07:00 +25°C° 0 mm 2 mps 759 mmHg 71%
    08:00 +27°C° 0 mm 3 mps 759 mmHg 61%
    09:00 +29°C° 0 mm 3 mps 759 mmHg 52%
    10:00 +33°C° 0 mm 3 mps 759 mmHg 42%
    11:00 +34°C° 0 mm 4 mps 759 mmHg 38%
    12:00 +35°C° 0 mm 5 mps 758 mmHg 34%
    13:00 +38°C° 0 mm 6 mps 758 mmHg 31%
    14:00 +36°C° 0 mm 6 mps 757 mmHg 33%
    15:00 +35°C° 0 mm 6 mps 757 mmHg 36%
    16:00 +34°C° 0 mm 7 mps 756 mmHg 39%
    17:00 +32°C° 0 mm 6 mps 757 mmHg 44%
    18:00 +29°C° 0 mm 6 mps 757 mmHg 50%
    19:00 +27°C° 0 mm 5 mps 758 mmHg 55%
    20:00 +27°C° 0 mm 4 mps 759 mmHg 57%
    21:00 +26°C° 0 mm 4 mps 759 mmHg 58%
    22:00 +26°C° 0 mm 3 mps 760 mmHg 59%
    23:00 +26°C° 0 mm 3 mps 760 mmHg 59%

    Mañana, 13 Diciembre, Jueves

    Tiempo Temperatura Precipitaciones Viento Presión Humedad
    00:00 +26°C° 0 mm 3 mps 760 mmHg 60%
    01:00 +25°C° 0 mm 3 mps 760 mmHg 60%
    02:00 +25°C° 0 mm 3 mps 759 mmHg 61%
    03:00 +25°C° 0 mm 3 mps 759 mmHg 62%
    04:00 +25°C° 0 mm 3 mps 758 mmHg 64%
    05:00 +25°C° 0 mm 3 mps 759 mmHg 61%
    06:00 +26°C° 0 mm 2 mps 759 mmHg 58%
    07:00 +26°C° 0 mm 2 mps 759 mmHg 55%
    08:00 +28°C° 0 mm 2 mps 760 mmHg 46%
    09:00 +31°C° 0 mm 2 mps 760 mmHg 38%
    10:00 +34°C° 0 mm 3 mps 760 mmHg 29%
    11:00 +35°C° 0 mm 4 mps 759 mmHg 30%
    12:00 +35°C° 0 mm 5 mps 759 mmHg 31%
    13:00 +35°C° 0 mm 6 mps 758 mmHg 32%
    14:00 +35°C° 0 mm 6 mps 758 mmHg 33%
    15:00 +34°C° 0 mm 6 mps 757 mmHg 34%
    16:00 +33°C° 0 mm 6 mps 757 mmHg 35%
    17:00 +30°C° 0 mm 5 mps 757 mmHg 42%
    18:00 +29°C° 0 mm 5 mps 758 mmHg 49%
    19:00 +27°C° 0 mm 4 mps 759 mmHg 55%
    20:00 +27°C° 0 mm 4 mps 759 mmHg 58%
    21:00 +26°C° 0 mm 3 mps 760 mmHg 61%
    22:00 +26°C° 0 mm 3 mps 761 mmHg 63%
    23:00 +26°C° 0 mm 2 mps 761 mmHg 64%

    Pasado mañana, 14 Diciembre, Viernes

    Tiempo Temperatura Precipitaciones Viento Presión Humedad
    00:00 +25°C° 0 mm 2 mps 760 mmHg 65%
    01:00 +25°C° 0 mm 2 mps 760 mmHg 66%
    02:00 +25°C° 0 mm 2 mps 760 mmHg 68%
    03:00 +24°C° 0 mm 3 mps 759 mmHg 70%
    04:00 +24°C° 0 mm 3 mps 759 mmHg 72%
    05:00 +24°C° 0 mm 3 mps 759 mmHg 73%
    06:00 +24°C° 0 mm 3 mps 760 mmHg 73%
    07:00 +24°C° 0 mm 3 mps 760 mmHg 73%
    08:00 +26°C° 0 mm 3 mps 760 mmHg 62%
    09:00 +28°C° 0 mm 3 mps 760 mmHg 51%
    10:00 +30°C° 0 mm 3 mps 760 mmHg 40%
    11:00 +32°C° 0 mm 4 mps 760 mmHg 38%
    12:00 +33°C° 0 mm 5 mps 759 mmHg 37%
    13:00 +34°C° 0 mm 6 mps 758 mmHg 35%
    14:00 +33°C° 0 mm 6 mps 758 mmHg 38%
    15:00 +32°C° 0 mm 6 mps 757 mmHg 42%
    16:00 +30°C° 0 mm 6 mps 757 mmHg 45%
    17:00 +28°C° 0 mm 5 mps 757 mmHg 49%
    18:00 +27°C° 0 mm 5 mps 758 mmHg 54%
    19:00 +26°C° 0 mm 4 mps 758 mmHg 58%
    20:00 +26°C° 0 mm 4 mps 759 mmHg 61%
    21:00 +25°C° 0 mm 3 mps 759 mmHg 64%
    22:00 +25°C° 0 mm 3 mps 760 mmHg 67%
    23:00 +25°C° 0 mm 3 mps 760 mmHg 69%

    15 Diciembre, Sábado

    Tiempo Temperatura Precipitaciones Viento Presión Humedad
    00:00 +24°C° 0 mm 2 mps 759 mmHg 70%
    01:00 +24°C° 0 mm 2 mps 759 mmHg 72%
    02:00 +24°C° 0 mm 2 mps 759 mmHg 74%
    03:00 +23°C° 0 mm 2 mps 758 mmHg 77%
    04:00 +23°C° 0 mm 2 mps 758 mmHg 79%
    05:00 +23°C° 0 mm 2 mps 759 mmHg 78%
    06:00 +23°C° 0 mm 2 mps 759 mmHg 77%
    07:00 +24°C° 0 mm 1 mps 759 mmHg 77%
    08:00 +26°C° 0 mm 2 mps 759 mmHg 65%
    09:00 +28°C° 0 mm 3 mps 759 mmHg 53%
    10:00 +31°C° 0 mm 3 mps 760 mmHg 41%
    11:00 +32°C° 0 mm 4 mps 759 mmHg 41%
    12:00 +33°C° 0 mm 5 mps 758 mmHg 40%
    13:00 +34°C° 0 mm 5 mps 757 mmHg 39%
    14:00 +33°C° 0 mm 5 mps 757 mmHg 41%
    15:00 +32°C° 0 mm 5 mps 757 mmHg 43%
    16:00 +32°C° 0 mm 5 mps 756 mmHg 44%
    17:00 +29°C° 0 mm 5 mps 757 mmHg 51%
    18:00 +28°C° 0 mm 4 mps 758 mmHg 57%
    19:00 +27°C° 0 mm 3 mps 758 mmHg 63%
    20:00 +26°C° 0 mm 3 mps 759 mmHg 65%
    21:00 +26°C° 0 mm 2 mps 760 mmHg 67%
    22:00 +26°C° 0 mm 2 mps 760 mmHg 68%
    23:00 +26°C° 0 mm 2 mps 760 mmHg 69%

    16 Diciembre, Domingo

    Tiempo Temperatura Precipitaciones Viento Presión Humedad
    00:00 +26°C° 0 mm 1 mps 759 mmHg 70%
    01:00 +25°C° 0 mm 1 mps 759 mmHg 71%
    02:00 +25°C° 0 mm 1 mps 758 mmHg 72%
    03:00 +25°C° 0 mm 1 mps 758 mmHg 73%
    04:00 +25°C° 0 mm 1 mps 758 mmHg 74%
    05:00 +25°C° 0 mm 1 mps 758 mmHg 72%
    06:00 +26°C° 0 mm 1 mps 758 mmHg 70%
    07:00 +26°C° 0 mm 1 mps 759 mmHg 69%
    08:00 +28°C° 0 mm 1 mps 759 mmHg 59%
    09:00 +30°C° 0 mm 2 mps 759 mmHg 49%
    10:00 +32°C° 0 mm 2 mps 758 mmHg 39%
    11:00 +34°C° 0 mm 3 mps 758 mmHg 37%
    12:00 +35°C° 0 mm 4 mps 757 mmHg 36%
    13:00 +36°C° 0 mm 5 mps 757 mmHg 35%
    14:00 +35°C° 0 mm 5 mps 756 mmHg 36%
    15:00 +35°C° 0 mm 5 mps 756 mmHg 38%
    16:00 +34°C° 0 mm 5 mps 756 mmHg 40%
    17:00 +32°C° 0 mm 4 mps 757 mmHg 47%
    18:00 +29°C° 0 mm 4 mps 757 mmHg 54%
    19:00 +28°C° 0 mm 4 mps 758 mmHg 61%
    20:00 +27°C° 0 mm 3 mps 758 mmHg 64%
    21:00 +27°C° 0 mm 3 mps 759 mmHg 66%
    22:00 +26°C° 0 mm 2 mps 760 mmHg 69%
    23:00 +26°C° 0 mm 2 mps 759 mmHg 71%

    17 Diciembre, Lunes

    Tiempo Temperatura Precipitaciones Viento Presión Humedad
    00:00 +26°C° 0 mm 2 mps 759 mmHg 72%
    01:00 +26°C° 0 mm 2 mps 759 mmHg 73%
    02:00 +26°C° 0 mm 2 mps 759 mmHg 74%
    03:00 +26°C° 0 mm 2 mps 759 mmHg 76%
    04:00 +25°C° 0 mm 2 mps 759 mmHg 77%
    05:00 +26°C° 0 mm 2 mps 759 mmHg 77%
    06:00 +26°C° 0 mm 2 mps 759 mmHg 77%
    07:00 +26°C° 0 mm 3 mps 760 mmHg 76%
    08:00 +28°C° 0 mm 3 mps 760 mmHg 67%
    09:00 +30°C° 0 mm 4 mps 759 mmHg 58%
    10:00 +33°C° 0 mm 5 mps 759 mmHg 49%
    11:00 +33°C° 0 mm 5 mps 759 mmHg 47%
    12:00 +34°C° 0 mm 5 mps 758 mmHg 45%
    13:00 +35°C° 0 mm 6 mps 758 mmHg 43%
    14:00 +35°C° 0 mm 6 mps 757 mmHg 46%
    15:00 +34°C° 0 mm 5 mps 757 mmHg 48%
    16:00 +33°C° 0 mm 5 mps 757 mmHg 50%
    17:00 +32°C° 0 mm 5 mps 757 mmHg 56%
    18:00 +29°C° 0 mm 4 mps 758 mmHg 63%
    19:00 +28°C° 0 mm 4 mps 758 mmHg 69%
    20:00 +27°C° 0 mm 3 mps 759 mmHg 72%
    21:00 +27°C° 0 mm 2 mps 759 mmHg 75%
    22:00 +26°C° 0 mm 2 mps 760 mmHg 78%
    23:00 +26°C° 0 mm 2 mps 759 mmHg 79%
    Mostrar más